THORAD AGENA D DEB, 42511

Orbit data source: Space-Track

THORAD AGENA D DEB, 42511 is space debris in SSO originally from a launch on Wed, 08 Apr 1970 UTC launched from the Air Force Western Test Range (AFWTR). Debris objects in space refer to the collection of defunct objects orbiting the Earth. Examples of debris include non-operational satellites, rocket bodies, and fragments generated from explosions, collisions, or faulty payload assembly.

Loading next visibility...
Identifier
42511, 1970-025RR
Orbit
SSO
Country
Flag of USUS
Related business
Manufacturer
Unknown
Mission
Spacecraft
Bus & Motor
Unknown
Mass
Unknown
Launch date (UTC)
1970-04-08 (56 years ago)
Launch vehicle
Unknown
Launch site
Air Force Western Test Range (AFWTR)
Object type
Payload
Rocket body
Debris
Shape & HBR
Unknown shape, 0.1 m
Radar Cross Section
Small (<0.1 m²)

Expand to show TLE details & history
Last TLE update: 2 days ago

TLE from 2 days ago
0 THORAD AGENA D DEB
1 42511U 70025RR  26034.68748764  .00000311  00000-0  11155-2 0  9992
2 42511 100.1823 305.4205 0458811 291.3553  63.9168 12.72707665565994
Epoch: 2026-02-03T16:29Z
TLE epoch observation values (Epoch: 2026-02-03T16:29:58.932Z)
Latitude
0.00006°
Longitude
-75.9399°
Altitude
1,230.81 km
Speed
7.306 km/s
True Right ascension
20h 21m 40s
True Declination
0° 00' 00"
Sunlit
Object was in daylight at epoch
Visualization orbit readout
Latitude
Unknown
Longitude
Unknown
Altitude
Unknown
Speed
Unknown
Apparent Right ascension
Unknown
Apparent Declination
Unknown
Sunlit
N/A
Visualization observer readout
Local Sidereal Time
14:53:21
Azimuth
Unknown
Elevation
Unknown
Doppler factor
Unknown
Orbital elements
Apogee altitude
1,723.769 km
Perigee altitude
1,012.934 km
Semi-major axis
7,746.489 km
Eccentricity
0.04588
Inclination
100.1823°
RAAN
305.4205°
Arg. of periapsis
291.3553°
True anomaly
68.75518°
Mean anomaly
63.9168°
Eccentric anomaly
66.32434°
Mean motion
3.18336 °/min
Orbital period
113.09 mins
BSTAR
0.0011155
Loading maneuver chart data...
Computing Atmospheric mass density...

Documentation

Showing up to 5 results
|